Showing default

ASBM-2, 60423

Orbit data source: Space-Track

ASBM-2, 60423 is a Norwegian payload satellite in HEO that was launched on Mon, 12 Aug 2024 UTC via an FALCON 9 launch vehicle from the Air Force Western Test Range (AFWTR). Payload-class satellites include a variety of spacecraft equipped with specific instruments for various scientific and technological missions. These include communications satellites like Starlink; space stations such as the ISS; scientific satellites like the Hubble; Earth observation satellites from companies like Planet Labs, Umbra, and HawkEye 360; GPS; miniature CubeSats for education and research; and military/defense satellites.

Loading next visibility...
Identifier
60423, 2024-143B
Orbit
HEO
Last TLE update
2 weeks ago
Origin
Manufacturer
NGIS SSG
Mission
Operational Commercial Communications
Bus & Motor
GEOSTAR-3, BT-4?
Mass
3,505 kg wet, 1,925 kg dry
Launch date (UTC)
2024-08-12 (11 months ago)
Launch vehicle
FALCON 9
Launch site
Air Force Western Test Range (AFWTR)
Object type
Payload
Rocket body
Debris
Shape & HBR
Box + 2 Pan, 27 m
Radar Cross Section
35.796 m², Large (>1 m²)

Expand to show TLE details & history

TLE from 2 weeks ago
0 ASBM-2
1 60423U 24143B   25178.83850449 -.00000094  00000-0  00000-0 0  9997
2 60423  62.5518  59.1589 5451719 268.6641  31.5439  1.50427277  6271
Epoch: 2025-06-27T20:07Z
TLE epoch observation values (Epoch: 2025-06-27T20:07:26.787Z)
Latitude
-0.00008°
Longitude
-158.81923°
Altitude
16,550.335 km
Speed
4.731 km/s
True Right ascension
03h 56m 54s
True Declination
0° 00' 00"
Sunlit
Object was in daylight at epoch
Visualization orbit readout
Latitude
-0.81258°
Longitude
21.20938°
Altitude
15,720.074 km
Speed
4.867 km/s
Apparent Right ascension
15h 05m 57s
Apparent Declination
-11° 42' 32"
Sunlit
Object is in daylight
Visualization observer readout
Local Sidereal Time
20:47:18
Azimuth
258.039° W
Elevation
-3.964°
Doppler factor
1
Orbital elements
Apogee altitude
43,337.021 km
Perigee altitude
8,255.737 km
Semi-major axis
32,174.516 km
Eccentricity
0.54517
Inclination
62.5518°
RAAN
59.1589°
Arg. of periapsis
268.6641°
True anomaly
Unknown
Mean anomaly
31.5439°
Eccentric anomaly
Unknown
Mean motion
0.37608 °/min
Orbital period
957.25 mins
BSTAR
0
Loading maneuver chart data...
Loading SW <> Apogee altitude chart data...
Loading historical data...
Loading historical data...
Loading historical data...
Loading historical data...
Loading historical data...
Loading historical data...
Loading historical data...
Other satellites on launch #143 in the year 2024 (2024-08-12 UTC)

ASBM-2 Visibility forecast

Observer location: undefined°, undefined°

Span
Click to sort rows by Start time (UTC) header in descending order
Start Az.
Max El. time (UTC)
Max El. Az.
Max El.
End time (UTC)
End Az.
780 mins2025-07-08 11:44:32.522Z97.22° ESE2025-07-08 16:17:32.522Z41.81° NE36.201°2025-07-09 00:44:32.522Z123.376° SE
|